Terminal Aerodrome Forecast
Issued by NWS

Home | Current Version | Previous Version | Text Only | Print | Product List | Glossary On
Versions: 1 2 3 4 5 6 7 8 9 10 11 12 13 14 15
000
FTUS42 KMLB 222137 AAB
TAFLEE
TAF AMD
KLEE 222137Z 2222/2318 22020G35KT P6SM VCSH SCT045 BKN060
     FM222300 21018G30KT P6SM VCTS BKN035CB
      TEMPO 2223/2301 25020G40KT 2SM +TSRA BKN015CB
     FM230100 23012G18KT P6SM -SHRA BKN035
     FM230400 22015KT P6SM BKN035=

USA.gov is the U.S. government's official web portal to all federal, state and local government web resources and services.